Time,TemperatureF,DewpointF,PressureIn,WindDirection,WindDirectionDegrees,WindSpeedMPH,WindSpeedGustMPH,Humidity,HourlyPrecipIn,Conditions,Clouds,dailyrainin,SoftwareType,DateUTC
2013-02-24 00:01:00,42.4,31.9,30.06,NNE,22,0.0,-999.0,66,-99.99,,,0.00,Acu-Link.com,2013-02-24 08:01:00,
2013-02-24 00:16:00,41.9,32.1,30.07,NE,45,1.7,-999.0,68,-99.99,,,0.00,Acu-Link.com,2013-02-24 08:16:00,
2013-02-24 00:31:00,42.1,31.6,30.07,NE,45,2.7,-999.0,66,-99.99,,,0.00,Acu-Link.com,2013-02-24 08:31:00,
2013-02-24 01:01:00,41.4,32.0,30.08,NNE,22,1.7,-999.0,69,-99.99,,,0.00,Acu-Link.com,2013-02-24 09:01:00,
2013-02-24 01:18:00,41.4,32.0,30.08,North,0,2.2,-999.0,69,-99.99,,,0.00,Acu-Link.com,2013-02-24 09:18:00,
2013-02-24 01:33:00,41.4,31.6,30.07,WSW,247,0.0,-999.0,68,-99.99,,,0.00,Acu-Link.com,2013-02-24 09:33:00,
2013-02-24 01:49:00,40.3,31.7,30.08,NNE,22,0.0,-999.0,71,-99.99,,,0.00,Acu-Link.com,2013-02-24 09:49:00,
2013-02-24 02:04:00,39.6,31.7,30.07,North,0,0.0,-999.0,73,-99.99,,,0.00,Acu-Link.com,2013-02-24 10:04:00,
2013-02-24 02:19:00,39.9,32.3,30.07,North,0,2.2,-999.0,74,-99.99,,,0.00,Acu-Link.com,2013-02-24 10:19:00,
2013-02-24 02:34:00,39.9,32.0,30.06,NNW,337,0.0,-999.0,73,-99.99,,,0.00,Acu-Link.com,2013-02-24 10:34:00,
2013-02-24 02:49:00,39.9,32.0,30.06,North,0,0.0,-999.0,73,-99.99,,,0.00,Acu-Link.com,2013-02-24 10:49:00,
2013-02-24 03:04:00,39.6,32.0,30.06,NW,315,0.0,-999.0,74,-99.99,,,0.00,Acu-Link.com,2013-02-24 11:04:00,
2013-02-24 03:19:00,38.8,31.9,30.07,North,0,0.0,-999.0,76,-99.99,,,0.00,Acu-Link.com,2013-02-24 11:19:00,
2013-02-24 03:34:00,38.1,31.2,30.06,NW,315,0.0,-999.0,76,-99.99,,,0.00,Acu-Link.com,2013-02-24 11:34:00,
2013-02-24 03:50:00,37.8,30.9,30.07,ENE,67,0.0,-999.0,76,-99.99,,,0.00,Acu-Link.com,2013-02-24 11:50:00,
2013-02-24 04:05:00,37.8,31.6,30.06,ENE,67,0.0,-999.0,78,-99.99,,,0.00,Acu-Link.com,2013-02-24 12:05:00,
2013-02-24 04:20:00,39.2,30.9,30.06,NE,45,2.7,-999.0,72,-99.99,,,0.00,Acu-Link.com,2013-02-24 12:20:00,
2013-02-24 04:51:00,39.4,30.8,30.07,NNE,22,0.0,-999.0,71,-99.99,,,0.00,Acu-Link.com,2013-02-24 12:51:00,
2013-02-24 05:06:00,39.0,30.8,30.07,NE,45,2.2,-999.0,72,-99.99,,,0.00,Acu-Link.com,2013-02-24 13:06:00,
2013-02-24 05:21:00,39.7,31.1,30.08,NE,45,2.7,-999.0,71,-99.99,,,0.00,Acu-Link.com,2013-02-24 13:21:00,
2013-02-24 05:36:00,40.3,31.0,30.07,NNW,337,3.2,-999.0,69,-99.99,,,0.00,Acu-Link.com,2013-02-24 13:36:00,
2013-02-24 05:51:00,39.9,30.9,30.08,NNE,22,1.7,-999.0,70,-99.99,,,0.00,Acu-Link.com,2013-02-24 13:51:00,
2013-02-24 06:06:00,39.6,31.0,30.08,NNW,337,0.0,-999.0,71,-99.99,,,0.00,Acu-Link.com,2013-02-24 14:06:00,
2013-02-24 06:21:00,39.0,31.1,30.09,ESE,112,0.0,-999.0,73,-99.99,,,0.00,Acu-Link.com,2013-02-24 14:21:00,
2013-02-24 06:36:00,38.3,30.8,30.10,NNE,22,0.0,-999.0,74,-99.99,,,0.00,Acu-Link.com,2013-02-24 14:36:00,
2013-02-24 06:51:00,37.9,30.7,30.10,North,0,0.0,-999.0,75,-99.99,,,0.00,Acu-Link.com,2013-02-24 14:51:00,
2013-02-24 07:07:00,37.8,30.9,30.10,NNE,22,0.0,-999.0,76,-99.99,,,0.00,Acu-Link.com,2013-02-24 15:07:00,
2013-02-24 07:22:00,38.1,31.2,30.11,ENE,67,0.0,-999.0,76,-99.99,,,0.00,Acu-Link.com,2013-02-24 15:22:00,
2013-02-24 07:37:00,39.4,32.1,30.12,North,0,1.7,-999.0,75,-99.99,,,0.00,Acu-Link.com,2013-02-24 15:37:00,
2013-02-24 07:52:00,40.8,32.5,30.11,North,0,0.0,-999.0,72,-99.99,,,0.00,Acu-Link.com,2013-02-24 15:52:00,
2013-02-24 08:07:00,42.6,33.2,30.11,North,0,2.7,-999.0,69,-99.99,,,0.00,Acu-Link.com,2013-02-24 16:07:00,
2013-02-24 08:22:00,45.0,33.6,30.12,NNW,337,3.2,-999.0,64,-99.99,,,0.00,Acu-Link.com,2013-02-24 16:22:00,
2013-02-24 08:37:00,46.6,33.9,30.10,North,0,4.7,-999.0,61,-99.99,,,0.00,Acu-Link.com,2013-02-24 16:37:00,
2013-02-24 08:52:00,48.0,34.4,30.10,South,180,2.2,-999.0,59,-99.99,,,0.00,Acu-Link.com,2013-02-24 16:52:00,
2013-02-24 09:07:00,50.0,34.9,30.09,North,0,3.2,-999.0,56,-99.99,,,0.00,Acu-Link.com,2013-02-24 17:07:00,
2013-02-24 09:23:00,50.5,34.0,30.09,NNE,22,2.7,-999.0,53,-99.99,,,0.00,Acu-Link.com,2013-02-24 17:23:00,
2013-02-24 09:38:00,51.4,33.9,30.09,WNW,292,5.3,-999.0,51,-99.99,,,0.00,Acu-Link.com,2013-02-24 17:38:00,
2013-02-24 09:53:00,54.3,35.0,30.11,North,0,3.2,-999.0,48,-99.99,,,0.00,Acu-Link.com,2013-02-24 17:53:00,
2013-02-24 10:08:00,55.9,34.9,30.08,NW,315,4.2,-999.0,45,-99.99,,,0.00,Acu-Link.com,2013-02-24 18:08:00,
2013-02-24 10:23:00,56.5,34.9,30.09,North,0,3.2,-999.0,44,-99.99,,,0.00,Acu-Link.com,2013-02-24 18:23:00,
2013-02-24 10:38:00,56.5,37.6,30.09,NE,45,1.7,-999.0,49,-99.99,,,0.00,Acu-Link.com,2013-02-24 18:38:00,
2013-02-24 10:53:00,58.5,35.5,30.08,South,180,3.7,-999.0,42,-99.99,,,0.00,Acu-Link.com,2013-02-24 18:53:00,
2013-02-24 11:08:00,58.3,33.5,30.08,NE,45,2.2,-999.0,39,-99.99,,,0.00,Acu-Link.com,2013-02-24 19:08:00,
2013-02-24 11:23:00,58.8,33.3,30.07,NNE,22,4.7,-999.0,38,-99.99,,,0.00,Acu-Link.com,2013-02-24 19:23:00,
2013-02-24 11:39:00,59.9,32.9,30.07,North,0,3.7,-999.0,36,-99.99,,,0.00,Acu-Link.com,2013-02-24 19:39:00,
2013-02-24 11:54:00,59.7,34.1,30.06,NE,45,2.7,-999.0,38,-99.99,,,0.00,Acu-Link.com,2013-02-24 19:54:00,
2013-02-24 12:09:00,59.7,34.7,30.06,NW,315,3.7,-999.0,39,-99.99,,,0.00,Acu-Link.com,2013-02-24 20:09:00,
2013-02-24 12:24:00,61.7,34.5,30.05,South,180,5.3,-999.0,36,-99.99,,,0.00,Acu-Link.com,2013-02-24 20:24:00,
2013-02-24 12:39:00,60.4,32.6,30.04,NNE,22,4.7,-999.0,35,-99.99,,,0.00,Acu-Link.com,2013-02-24 20:39:00,
2013-02-24 12:54:00,61.3,32.7,30.04,NE,45,3.2,-999.0,34,-99.99,,,0.00,Acu-Link.com,2013-02-24 20:54:00,
2013-02-24 13:09:00,61.7,30.8,30.03,NNW,337,3.7,-999.0,31,-99.99,,,0.00,Acu-Link.com,2013-02-24 21:09:00,
2013-02-24 13:24:00,62.1,31.1,30.03,SSW,202,3.2,-999.0,31,-99.99,,,0.00,Acu-Link.com,2013-02-24 21:24:00,
2013-02-24 13:39:00,61.9,31.7,30.02,NW,315,1.7,-999.0,32,-99.99,,,0.00,Acu-Link.com,2013-02-24 21:39:00,
2013-02-24 13:55:00,62.1,31.1,30.02,North,0,2.7,-999.0,31,-99.99,,,0.00,Acu-Link.com,2013-02-24 21:55:00,
2013-02-24 14:10:00,62.4,32.9,30.01,NE,45,1.7,-999.0,33,-99.99,,,0.00,Acu-Link.com,2013-02-24 22:10:00,
2013-02-24 14:25:00,62.1,31.9,30.01,North,0,2.7,-999.0,32,-99.99,,,0.00,Acu-Link.com,2013-02-24 22:25:00,
2013-02-24 14:40:00,62.1,31.1,30.02,ENE,67,3.7,-999.0,31,-99.99,,,0.00,Acu-Link.com,2013-02-24 22:40:00,
2013-02-24 14:55:00,62.4,32.9,30.01,ESE,112,2.7,-999.0,33,-99.99,,,0.00,Acu-Link.com,2013-02-24 22:55:00,
2013-02-24 15:10:00,62.6,33.1,30.01,North,0,0.0,-999.0,33,-99.99,,,0.00,Acu-Link.com,2013-02-24 23:10:00,
2013-02-24 15:25:00,62.8,33.3,30.01,ENE,67,2.7,-999.0,33,-99.99,,,0.00,Acu-Link.com,2013-02-24 23:25:00,
2013-02-24 15:40:00,62.8,34.0,30.01,North,0,0.0,-999.0,34,-99.99,,,0.00,Acu-Link.com,2013-02-24 23:40:00,
2013-02-24 15:55:00,63.3,32.9,30.01,NW,315,0.0,-999.0,32,-99.99,,,0.00,Acu-Link.com,2013-02-24 23:55:00,
2013-02-24 16:11:00,62.1,34.1,30.01,NNE,22,0.0,-999.0,35,-99.99,,,0.00,Acu-Link.com,2013-02-25 00:11:00,
2013-02-24 16:26:00,61.9,34.7,30.01,NNE,22,0.0,-999.0,36,-99.99,,,0.00,Acu-Link.com,2013-02-25 00:26:00,
2013-02-24 16:41:00,62.6,33.8,30.01,NNE,22,0.0,-999.0,34,-99.99,,,0.00,Acu-Link.com,2013-02-25 00:41:00,
2013-02-24 16:56:00,62.6,32.3,30.01,WNW,292,0.0,-999.0,32,-99.99,,,0.00,Acu-Link.com,2013-02-25 00:56:00,
2013-02-24 17:11:00,61.9,33.2,30.01,East,90,0.0,-999.0,34,-99.99,,,0.00,Acu-Link.com,2013-02-25 01:11:00,
2013-02-24 17:26:00,60.6,32.8,30.00,NNW,337,0.0,-999.0,35,-99.99,,,0.00,Acu-Link.com,2013-02-25 01:26:00,
2013-02-24 17:41:00,58.8,33.3,30.01,SSE,157,0.0,-999.0,38,-99.99,,,0.00,Acu-Link.com,2013-02-25 01:41:00,
2013-02-24 17:56:00,56.8,34.5,30.03,SSE,157,0.0,-999.0,43,-99.99,,,0.00,Acu-Link.com,2013-02-25 01:56:00,
2013-02-24 18:11:00,55.0,34.6,30.01,SSE,157,0.0,-999.0,46,-99.99,,,0.00,Acu-Link.com,2013-02-25 02:11:00,
2013-02-24 18:27:00,53.1,35.0,30.00,South,180,0.0,-999.0,50,-99.99,,,0.00,Acu-Link.com,2013-02-25 02:27:00,
2013-02-24 18:42:00,52.0,35.4,30.01,South,180,0.0,-999.0,53,-99.99,,,0.00,Acu-Link.com,2013-02-25 02:42:00,
2013-02-24 18:57:00,50.9,35.3,30.01,South,180,0.0,-999.0,55,-99.99,,,0.00,Acu-Link.com,2013-02-25 02:57:00,
2013-02-24 19:12:00,49.6,35.4,30.01,SSW,202,0.0,-999.0,58,-99.99,,,0.00,Acu-Link.com,2013-02-25 03:12:00,
2013-02-24 19:27:00,48.9,35.2,30.01,South,180,0.0,-999.0,59,-99.99,,,0.00,Acu-Link.com,2013-02-25 03:27:00,
2013-02-24 19:42:00,48.4,34.7,30.01,South,180,0.0,-999.0,59,-99.99,,,0.00,Acu-Link.com,2013-02-25 03:42:00,
2013-02-24 19:57:00,47.7,35.3,30.00,South,180,0.0,-999.0,62,-99.99,,,0.00,Acu-Link.com,2013-02-25 03:57:00,
2013-02-24 20:12:00,46.9,34.6,29.97,SSW,202,0.0,-999.0,62,-99.99,,,0.00,Acu-Link.com,2013-02-25 04:12:00,
2013-02-24 20:27:00,46.8,36.0,29.97,SSW,202,1.1,-999.0,66,-99.99,,,0.00,Acu-Link.com,2013-02-25 04:27:00,
2013-02-24 20:58:00,46.0,35.7,30.01,South,180,0.0,-999.0,67,-99.99,,,0.00,Acu-Link.com,2013-02-25 04:58:00,
2013-02-24 21:13:00,45.7,35.4,30.03,SSW,202,0.0,-999.0,67,-99.99,,,0.00,Acu-Link.com,2013-02-25 05:13:00,
2013-02-24 21:28:00,45.3,35.0,30.05,South,180,0.0,-999.0,67,-99.99,,,0.00,Acu-Link.com,2013-02-25 05:28:00,
2013-02-24 21:43:00,45.1,34.8,30.05,SSW,202,0.0,-999.0,67,-99.99,,,0.00,Acu-Link.com,2013-02-25 05:43:00,
2013-02-24 21:58:00,45.1,34.8,30.07,South,180,0.0,-999.0,67,-99.99,,,0.00,Acu-Link.com,2013-02-25 05:58:00,
2013-02-24 22:13:00,45.0,35.1,30.07,South,180,0.0,-999.0,68,-99.99,,,0.00,Acu-Link.com,2013-02-25 06:13:00,
2013-02-24 22:28:00,46.4,36.0,30.07,South,180,2.7,-999.0,67,-99.99,,,0.00,Acu-Link.com,2013-02-25 06:28:00,
2013-02-24 22:44:00,45.7,35.8,30.08,SE,135,2.7,-999.0,68,-99.99,,,0.00,Acu-Link.com,2013-02-25 06:44:00,
2013-02-24 22:59:00,45.3,35.4,30.08,South,180,0.0,-999.0,68,-99.99,,,0.00,Acu-Link.com,2013-02-25 06:59:00,
2013-02-24 23:14:00,45.1,35.5,30.09,West,270,0.0,-999.0,69,-99.99,,,0.00,Acu-Link.com,2013-02-25 07:14:00,
2013-02-24 23:29:00,45.0,35.5,30.10,SSE,157,2.2,-999.0,69,-99.99,,,0.00,Acu-Link.com,2013-02-25 07:29:00,
2013-02-24 23:44:00,45.1,35.2,30.10,South,180,2.2,-999.0,68,-99.99,,,0.00,Acu-Link.com,2013-02-25 07:44:00,
2013-02-24 23:59:00,45.5,35.2,30.12,SW,225,3.2,-999.0,67,-99.99,,,0.00,Acu-Link.com,2013-02-25 07:59:00,